Flag for Australia Weather past 2 weeks in Adelaide, South Australia, Australia

Now
50 °F

Passing clouds.


Feels Like: 42 °F
Forecast: 44 / 51 °F
Wind: 29 mph from West

Location: Adelaide Airport

Current Time: Jul 31, 2014 at 11:33:01 PM

Latest Report: Jul 31, 2014 at 10:30 PM


Visibility: N/A

Pressure: 29.83 "Hg

Humidity: 62%

Dew point: 37 °F

Location of AdelaideLocation

Historic Weather in Adelaide — Graph

°F

Adelaide temperature yesterday

Maximum temperature yesterday: 63 °F (at 2:00 PM)
Minimum temperature yesterday: 52 °F (at 11:30 PM)
Average temperature yesterday: 57 °F

Past Weeks' High & Low Weather Summary

 TemperatureHumidityPressure
High64 °F (Jul 22, 1:00 PM)100% (Jul 24, 4:00 AM)30.51 "Hg (Jul 24, 4:00 AM)
Low37 °F (Jul 18, 4:30 AM)37% (Jul 22, 12:00 PM)29.65 "Hg (Jul 24, 4:00 AM)
Average52 °F79%30.11 "Hg
* Reported Jul 16 10:30 PM — Jul 31 10:30 PM, Adelaide, Weather by CustomWeather, © 2014

Note: Actual official high and low records may vary slightly from our data, if they occured in-between our weather recording intervals... More about our weather records

Advertising

Adelaide weather history for previous 24 hours

 ConditionsComfort  
Time TempWeatherWind HumidityBarometerVisibility
10:30 PM
Jul 31
50 °FPassing clouds.29 mph62%29.83 "HgN/A
10:00 PM50 °FPassing clouds.25 mph58%29.83 "HgN/A
9:30 PM50 °FPassing clouds.23 mph58%29.83 "HgN/A
9:00 PM50 °FPassing clouds.22 mph71%29.83 "HgN/A
8:30 PM46 °FScattered showers. Passing clouds.25 mph87%29.83 "HgN/A
8:00 PM48 °FPassing clouds.18 mph71%29.83 "HgN/A
7:30 PM46 °FPassing clouds.21 mph82%29.83 "HgN/A
7:00 PM52 °FPassing clouds.21 mph62%29.80 "HgN/A
6:30 PM52 °FPassing clouds.18 mph67%29.77 "HgN/A
6:00 PM50 °FPassing clouds.22 mph71%29.77 "HgN/A
5:30 PM50 °FPassing clouds.31 mph71%29.77 "HgN/A
5:00 PM52 °FLight rain. Partly sunny.28 mph72%29.74 "HgN/A
4:30 PM52 °FLight rain. Broken clouds.26 mph88%29.71 "Hg5 mi
4:00 PM54 °FPartly sunny.24 mph77%29.71 "HgN/A
3:30 PM52 °FLight rain. Partly sunny.21 mph88%29.68 "Hg4 mi
3:00 PM52 °FLight rain. Broken clouds.25 mph94%29.68 "Hg3 mi
2:30 PM54 °FPartly sunny.17 mph88%29.68 "HgN/A
2:00 PM52 °FLight rain. Partly sunny.20 mph94%29.68 "Hg4 mi
1:34 PM52 °FLight rain. Partly sunny.22 mph94%29.68 "Hg2 mi
1:30 PM52 °FLight rain. Partly sunny.23 mph94%29.68 "Hg2 mi
1:00 PM52 °FLight rain. Partly sunny.24 mph94%29.68 "Hg2 mi
12:30 PM52 °FLight rain. Partly sunny.22 mph94%29.68 "Hg2 mi
11:30 AM59 °FPartly sunny.24 mph63%29.65 "HgN/A
11:00 AM59 °FPartly sunny.26 mph63%29.65 "HgN/A
10:30 AM59 °FPartly sunny.25 mph63%29.68 "HgN/A
10:00 AM59 °FPassing clouds.25 mph63%29.68 "HgN/A
9:30 AM59 °FPassing clouds.21 mph63%29.68 "HgN/A
9:00 AM59 °FPassing clouds.16 mph63%29.71 "HgN/A
8:30 AM55 °FPassing clouds.8 mph77%29.71 "HgN/A
8:00 AM54 °FScattered clouds.9 mph77%29.74 "HgN/A
7:30 AM54 °FPassing clouds.13 mph77%29.71 "HgN/A
7:00 AM55 °FScattered clouds.15 mph72%29.74 "HgN/A
6:30 AM55 °FPassing clouds.10 mph72%29.74 "HgN/A
6:00 AM50 °FClear.13 mph82%29.74 "Hg10 mi
5:30 AM52 °FClear.16 mph82%29.74 "Hg10 mi
5:00 AM50 °FClear.12 mph82%29.74 "Hg10 mi
4:30 AM50 °FClear.13 mph88%29.74 "Hg10 mi
4:00 AM50 °FCool.13 mph88%29.77 "HgN/A
3:00 AM50 °FClear.10 mph88%29.80 "Hg10 mi
2:30 AM48 °FClear.12 mph94%29.80 "Hg10 mi
2:00 AM50 °FClear.13 mph88%29.83 "Hg10 mi
1:30 AM50 °FClear.10 mph88%29.83 "Hg10 mi
12:30 AM50 °FClear.12 mph94%29.86 "Hg10 mi
12:00 AM52 °FClear.13 mph88%29.86 "Hg10 mi
11:30 PM
Jul 30
52 °FClear.12 mph88%29.89 "Hg10 mi
11:00 PM54 °FClear.12 mph88%29.89 "Hg10 mi
Weather by CustomWeather, © 2014

See weather overviewHow to use our weather pages